Location: Songkhla
(7.2000°N, 100.6000°E)
Time: 12:07:48
(UTC+07:00)

ISS - Visible Passes

Search period start: 23 May 2017 00:00
Search period end: 02 June 2017 00:00
Orbit: 402 x 409 km, 51.6° (Epoch: 23 May)

Date Brightness Start Highest point End Pass type
(mag) Time Alt. Az. Time Alt. Az. Time Alt. Az.
23 May -1.5 19:50:17 10° WSW 19:53:06 26° NW 19:55:55 10° N visible
24 May -3.6 18:57:50 10° SW 19:01:06 76° NW 19:04:23 10° NNE visible
26 May -3.9 05:36:44 10° NW 05:39:58 79° SW 05:43:12 10° SSE visible
26 May -0.6 18:51:03 10° W 18:53:26 19° NW 18:55:49 10° N visible
27 May -2.0 04:45:00 10° NNW 04:47:57 33° NE 04:50:55 10° ESE visible
28 May -0.5 03:54:13 10° NNE 03:55:53 13° NE 03:57:33 10° E visible
28 May -2.4 05:29:51 10° WNW 05:32:11 18° SW 05:34:32 10° S visible
29 May -2.0 04:42:06 21° SSE 04:42:06 21° SSE 04:43:21 10° SSE visible
